Theta_e
353 353 352 353 353 353 351 349 348 347 349 351 351 351 352 353 355 355 355 355 356 356 355 355 356 355 356 354 354 355 358 354 355 354 352 353 351 350 350 349 348 348
354 355 356 354 354 357 355 352 350 348 348 350 352 352 353 354 355 355 354 354 356 356 355 355 355 355 354 354 353 351 349 353 348 355 351 353 352 351 351 350 348 347
355 356 356 355 354 354 355 354 351 349 348 349 350 352 353 355 354 355 355 354 354 356 355 355 354 356 355 353 351 350 350 347 347 349 357 353 354 350 351 350 349 350
355 356 357 356 356 355 355 355 354 351 349 348 348 350 352 354 354 354 354 360 353 354 354 355 354 355 356 353 353 351 350 349 348 349 356 357 356 352 351 350 352 349
356 356 357 357 357 357 356 355 354 353 351 350 350 349 351 350 351 353 353 354 353 353 353 354 353 353 354 352 352 351 353 352 352 351 352 352 352 354 351 351 350 349
357 357 358 358 358 356 355 354 354 355 353 351 350 350 349 350 350 351 353 352 353 353 353 353 353 353 353 352 352 351 354 356 356 354 352 350 352 354 356 352 351 351
357 357 357 357 357 355 354 353 352 355 354 353 351 348 347 348 348 349 351 353 352 352 352 352 353 352 353 352 353 354 355 354 355 355 353 353 354 353 355 354 352 349
357 357 356 355 354 353 353 352 351 351 351 351 349 349 347 346 346 349 351 352 351 351 351 352 353 353 354 353 353 355 355 356 355 353 352 352 351 350 351 352 348 346
355 355 355 353 353 352 352 352 351 351 355 353 350 351 351 350 348 346 350 351 351 350 349 350 353 353 354 355 355 355 355 355 356 353 351 350 350 348 349 349 348 347
351 353 353 352 351 352 351 351 351 352 354 354 354 353 353 351 351 351 348 349 350 350 350 356 358 357 357 356 357 356 355 353 350 350 350 349 349 349 347 346 345 343
350 351 351 350 350 350 350 351 352 352 352 350 347 349 350 351 354 357 354 353 354 356 357 357 357 358 358 358 357 355 353 351 350 349 348 346 347 347 353 345 347 343
350 350 350 350 350 349 350 351 352 348 347 350 350 349 350 352 353 357 357 351 352 354 354 353 355 357 356 355 354 352 351 350 350 347 346 348 347 347 348 346 344 345
350 350 350 350 351 350 352 352 349 348 349 350 352 351 352 352 354 357 356 353 352 351 351 353 353 352 352 352 351 351 350 350 348 347 346 346 346 346 347 347 345 346
351 351 350 350 351 353 353 354 350 350 349 350 352 351 352 353 355 358 356 354 353 352 352 352 349 348 349 350 350 350 349 346 345 345 344 344 344 344 345 345 346 346
351 351 351 354 355 354 355 354 351 349 349 349 350 351 353 353 356 358 355 353 352 352 351 351 350 349 350 351 350 349 348 346 345 346 346 346 344 344 345 345 345 347
351 352 353 356 355 354 354 352 350 350 349 349 349 350 351 353 355 356 354 351 349 348 350 349 348 351 357 359 358 352 349 349 348 348 347 346 345 344 346 346 346 346
349 350 353 356 352 351 352 352 350 349 349 349 349 348 350 353 354 355 353 351 349 349 349 347 349 355 360 348 352 358 353 350 350 348 348 347 347 344 343 346 346 348
347 347 347 349 348 347 351 352 351 349 347 348 348 348 349 352 351 353 353 352 351 350 350 350 350 353 342 346 349 353 359 354 352 351 351 348 346 345 345 346 346 346
344 343 344 346 348 348 350 352 349 348 348 348 348 349 349 349 349 350 352 351 350 348 346 345 342 342 338 342 342 343 352 356 351 350 348 347 347 346 346 347 346 343
342 341 342 346 348 349 351 352 350 349 350 350 350 350 347 347 348 350 351 349 349 347 343 342 341 342 336 337 336 338 343 353 349 348 348 347 347 346 343 344 344 341
343 342 343 344 346 349 351 351 351 350 350 350 348 347 346 347 349 350 350 350 348 344 342 340 341 334 333 334 332 332 339 354 349 350 348 347 344 341 341 342 341 341
345 344 345 346 346 347 348 348 348 349 348 348 347 346 347 349 350 351 351 349 346 343 339 335 333 328 328 328 328 330 345 352 349 348 347 344 341 338 337 338 337 336
346 346 346 346 346 346 346 346 346 346 346 348 347 346 347 348 349 349 349 346 343 340 338 336 335 326 323 322 322 327 346 346 348 345 342 339 337 336 335 334 333 331
346 346 345 345 343 344 345 345 346 346 346 349 346 346 347 349 347 346 346 344 342 339 339 336 332 327 321 321 321 328 346 345 344 341 339 337 336 337 338 338 340 340
347 346 345 344 343 344 344 344 345 345 346 347 346 347 349 348 348 346 344 343 342 341 344 334 331 329 320 324 327 334 343 344 343 339 334 332 331 329 330 330 332 338
348 347 346 345 343 344 344 343 345 346 346 346 347 346 346 346 345 344 343 343 343 339 336 333 330 328 328 322 324 327 334 343 341 336 332 329 329 329 328 328 328 328
Wind_Speed
11 9 10 9 8 7 7 7 6 7 6 7 7 8 8 7 6 7 7 7 7 7 7 7 6 6 6 6 6 5 3 3 2 3 3 4 4 3 4 4 4 3
11 10 8 8 7 6 6 6 7 7 6 7 7 6 6 6 7 7 7 7 7 8 7 7 7 7 6 6 5 6 5 4 3 2 3 3 2 1 0 1 1 1
10 9 9 9 9 9 8 5 5 6 7 7 6 6 6 6 6 6 6 7 7 8 7 7 7 7 7 6 6 6 5 4 3 2 3 3 3 2 1 1 0 0
10 10 10 10 9 8 7 6 5 5 6 6 6 6 6 6 6 7 6 7 7 7 7 7 8 7 7 7 6 6 5 4 4 3 3 3 3 3 2 1 1 1
12 11 9 9 8 8 8 8 8 6 6 6 6 6 7 6 6 7 7 7 7 7 6 7 7 7 6 5 5 5 3 4 3 3 4 4 3 3 2 1 0 1
11 10 10 9 9 9 9 10 9 7 6 6 7 6 7 8 8 8 8 8 8 8 7 6 7 7 6 6 5 5 4 4 3 4 4 3 3 1 0 1 2 2
12 11 11 9 9 9 10 9 7 7 7 5 4 6 7 8 9 10 9 9 9 7 7 6 6 6 6 6 5 4 5 5 4 4 4 2 2 2 1 1 2 3
12 10 10 9 10 10 11 9 7 5 4 3 5 6 7 8 9 9 9 10 9 8 8 7 6 6 5 5 5 4 4 4 4 3 3 2 2 2 3 3 3 3
9 9 9 9 11 10 10 8 5 5 3 3 4 1 5 5 2 3 7 9 8 9 9 8 6 6 5 5 5 6 5 3 2 3 4 4 4 3 3 2 2 2
8 7 8 9 10 9 7 6 5 4 3 2 11 12 8 9 14 14 5 7 7 7 5 4 3 3 3 4 4 4 4 4 3 3 3 3 3 3 2 2 2 2
8 7 7 8 8 5 5 5 4 3 11 13 14 7 6 5 1 8 4 2 6 7 7 5 5 6 6 5 4 4 5 5 4 3 3 2 2 3 4 2 2 2
9 7 7 8 7 5 4 4 6 13 12 9 11 10 7 9 8 5 0 4 6 8 8 7 6 6 6 6 6 5 5 4 4 5 2 4 3 2 2 2 2 2
10 9 8 7 5 5 4 6 12 12 11 9 9 13 12 11 7 3 1 2 6 7 7 7 6 5 6 5 4 4 4 4 3 4 3 2 2 2 1 1 2 2
11 8 7 6 5 5 5 8 11 9 10 10 9 8 9 7 7 5 3 2 4 5 6 6 7 7 7 5 5 5 5 4 3 3 3 2 2 2 2 2 3 2
7 6 6 7 7 8 8 9 11 11 10 10 9 8 6 6 7 7 6 5 4 5 5 4 5 7 7 7 6 4 4 4 3 3 3 3 2 2 2 2 1 1
6 6 7 7 8 8 8 10 11 11 10 9 7 6 5 4 4 5 6 7 6 5 4 5 3 2 6 10 7 5 4 4 4 4 3 3 3 2 1 1 2 1
6 6 7 7 8 8 8 10 10 9 7 6 6 5 6 5 5 6 6 6 6 6 6 7 6 4 9 9 10 10 6 5 4 4 3 3 3 3 3 3 3 4
10 9 6 3 5 8 7 7 7 7 7 8 10 10 7 6 6 6 6 6 6 6 6 5 4 6 8 8 6 7 8 5 4 4 4 4 3 3 3 4 5 4
12 11 10 10 12 11 7 8 7 7 7 8 9 7 7 6 6 6 6 6 6 6 5 4 4 6 6 7 5 4 8 8 4 4 4 4 3 3 4 5 5 5
9 10 12 13 9 8 7 8 8 9 8 6 5 6 6 6 5 7 6 6 6 6 6 5 4 5 5 5 4 3 2 4 4 4 4 4 3 4 5 5 5 4
10 11 11 8 8 9 9 10 9 6 5 5 6 7 8 7 7 7 6 6 6 6 6 5 4 5 3 3 3 2 1 4 4 3 4 4 5 5 5 5 4 4
10 7 5 6 9 10 9 7 5 5 6 6 6 5 4 5 4 6 7 7 7 6 6 6 4 5 4 5 2 2 5 3 3 4 6 7 6 5 5 5 4 4
7 8 7 6 5 8 8 8 8 7 6 5 6 7 7 7 6 6 7 8 8 7 7 5 4 3 3 1 3 4 4 4 5 7 7 7 6 4 5 5 4 4
5 6 7 5 5 7 8 7 7 5 6 6 8 8 7 7 7 7 7 8 8 9 7 7 5 2 1 4 5 5 5 5 7 8 7 7 6 5 5 5 6 12
6 6 5 4 2 4 2 7 8 7 6 4 5 6 7 7 7 8 8 7 7 8 11 8 5 2 2 4 7 7 7 7 9 8 8 6 6 6 5 5 5 8
6 6 5 5 7 5 5 2 3 6 7 7 6 5 5 7 6 5 6 7 6 7 5 5 6 3 3 8 10 11 11 8 8 9 8 7 6 6 6 4 4 4
Wind_Direction
200 200 203 202 202 202 204 206 211 206 198 187 189 196 198 202 195 196 199 193 193 194 197 200 200 209 220 227 233 233 192 199 214 200 184 200 224 243 262 271 282 264
200 200 204 207 211 210 211 209 211 210 201 194 193 191 201 197 202 197 198 197 198 204 201 201 202 206 213 217 220 212 204 186 193 192 132 142 183 159 183 299 289 263
198 200 203 207 212 218 220 218 216 218 205 195 192 189 199 206 207 203 202 199 200 208 206 207 207 210 214 216 208 206 200 203 229 206 141 159 168 148 191 187 208 205
201 201 204 209 212 218 223 222 221 220 219 198 191 194 201 211 206 204 207 207 206 209 208 206 210 211 213 213 197 196 187 187 216 192 160 163 180 171 202 210 271 270
199 201 203 205 207 211 213 221 218 210 214 214 209 196 198 207 207 207 204 205 205 209 205 207 209 212 206 198 189 187 184 200 224 186 181 196 216 195 206 179 4 2
198 200 199 199 201 201 209 215 217 211 205 211 219 211 204 207 208 209 203 202 205 206 203 202 205 210 199 199 191 185 183 199 193 168 174 204 251 286 193 136 112 99
199 198 199 196 199 202 209 213 213 216 216 213 204 216 207 204 206 207 204 200 199 199 195 198 202 206 203 195 190 187 190 183 171 159 155 192 192 242 3 79 93 98
201 199 196 194 195 200 205 206 205 209 217 228 230 226 205 202 197 196 198 193 193 186 192 194 197 200 203 186 187 188 193 193 174 148 129 130 122 101 94 98 128 136
197 195 194 197 202 204 208 200 195 201 184 207 234 227 38 17 330 235 191 189 184 186 192 198 194 193 189 182 185 184 185 166 140 136 140 141 129 136 144 153 130 154
194 190 188 196 208 209 202 196 196 203 207 13 31 36 41 29 359 320 255 190 178 177 170 148 141 150 163 174 173 163 148 135 130 126 127 114 136 156 165 166 161 139
197 183 184 193 204 194 191 194 190 84 50 62 77 55 54 70 170 276 287 201 140 141 140 139 136 139 136 127 124 129 127 130 127 129 95 109 190 182 181 167 169 188
199 185 192 194 187 176 177 168 91 80 93 92 119 141 164 175 202 211 125 184 156 139 137 137 139 131 132 132 125 118 118 125 137 107 169 183 181 181 167 176 175 201
200 193 188 190 180 162 138 108 100 110 115 144 167 160 169 181 179 108 158 209 141 134 136 134 124 112 92 83 93 121 130 129 128 145 150 141 152 173 181 169 194 209
202 188 175 160 137 127 123 116 119 134 148 163 169 176 177 164 130 160 163 123 110 121 133 132 126 111 118 139 154 143 135 140 150 143 142 153 171 196 208 213 207 214
186 162 149 144 141 139 137 130 137 152 164 167 171 174 160 152 164 149 143 127 120 126 135 138 128 134 152 159 144 138 141 152 153 145 157 163 186 203 207 216 243 237
146 132 134 130 133 137 140 144 152 162 166 164 164 168 153 162 166 146 145 148 140 136 128 94 97 181 162 153 152 152 152 145 147 166 161 160 165 173 193 194 173 148
99 95 110 117 115 127 158 160 162 163 155 138 130 171 183 178 169 156 153 145 146 143 135 137 182 184 147 146 159 160 152 150 162 168 169 167 166 150 144 115 75 77
93 71 50 53 150 178 171 152 161 160 157 162 167 183 181 170 160 155 142 139 139 138 131 132 122 119 130 149 156 167 157 157 164 166 168 164 155 145 127 112 109 89
103 129 145 169 197 182 163 171 173 170 170 175 181 174 155 159 157 143 140 135 134 131 123 115 106 118 119 128 131 130 164 163 160 163 152 144 138 121 112 122 120 98
126 146 170 187 167 118 165 179 181 188 180 161 143 138 153 159 147 143 137 135 135 132 124 114 103 117 99 114 112 145 171 142 154 148 135 134 127 104 112 121 117 110
174 185 191 182 136 141 164 180 185 174 139 136 141 151 163 164 156 147 141 135 128 121 121 111 97 84 72 87 65 28 171 135 130 119 105 84 74 77 89 103 103 104
183 176 177 174 158 156 163 162 154 152 149 145 141 144 143 141 144 144 141 128 122 119 111 103 74 55 43 43 50 216 187 115 114 103 89 82 74 72 79 77 82 82
174 164 173 185 149 141 146 153 155 163 161 157 149 157 157 162 158 140 127 127 123 121 116 118 128 75 63 55 235 198 141 124 95 88 93 89 78 80 79 76 70 67
168 172 182 174 134 154 153 157 159 157 169 173 165 160 162 158 141 129 128 130 132 134 138 137 140 125 193 228 184 156 137 117 107 110 103 99 88 68 70 73 86 85
178 185 184 174 109 52 89 148 162 165 170 162 163 155 148 143 135 130 126 120 126 129 139 129 123 136 224 179 142 122 104 110 117 116 112 112 111 89 62 65 53 63
154 160 156 130 121 112 69 38 161 154 162 164 158 157 141 120 99 87 104 112 110 116 107 110 109 87 51 84 95 97 102 110 121 121 124 125 117 113 100 70 68 65